Voltar ao catálogo

THORAD DELTA 1 DEB

AtivoSSO
NORAD 8789·DEBRIS·🇺🇸 United States

Lançado Nov 15, 1974 de Vandenberg Space Force Base

Loading…

Próximas Passagens (próximas 24 horas)

TLE

AtualizadoSource: Space-Track

Época: Sep 14, 2026, 08:10 UTC

1 08789U 74089DR  26257.34038940  .00000002  00000-0  34733-3 0  9998
2 08789 102.1611 208.9499 0106156  85.6474  67.8378 12.38998451343481

Acompanhe THORAD DELTA 1 DEB em tempo real com AllMySat

Download on the App Store